This demonstration page uses our WeatherBlox Daily Observations layout. Learn more.

Left ArrowRight Arrow

31.84235, -102.49876

Hourly Observations for March 22, 2017

Temp ( °F °C ) Dew Point ( °F °C ) Humidity (%) Winds ( mph kmh ) Pressure ( in mb ) Visibility ( mi km ) Precip ( " mm )
12:53 am 00:53 Clear 72 22.2 53 11.7 52 52 SE 8 13 29.90 1013 10 16 0.00 0.00
1:53 am 01:53 Clear 69 20.6 53 11.7 57 57 SE 8 13 29.90 1013 10 16 0.00 0.00
2:53 am 02:53 Clear 68 20 54 12.2 61 61 SSE 10 17 29.90 1012 10 16 0.00 0.00
3:53 am 03:53 Clear 62 16.7 53 11.7 73 73 E 8 13 29.91 1013 10 16 0.00 0.00
4:53 am 04:53 Clear 61 16.1 53 11.7 75 75 E 9 15 29.89 1012 10 16 0.00 0.00
5:53 am 05:53 Clear 59 15 52 11.1 78 78 ENE 9 15 29.91 1013 10 16 0.00 0.00
6:53 am 06:53 Clear 58 14.4 52 11.1 81 81 E 12 19 29.92 1013 10 16 0.00 0.00
7:53 am 07:53 Sunny 58 14.4 52 11.1 81 81 E 10 17 29.94 1014 9 14 0.00 0.00
8:53 am 08:53 Sunny 61 16.1 53 11.7 75 75 E 10 17 29.96 1015 10 16 0.00 0.00
9:53 am 09:53 Sunny 66 18.9 53 11.7 63 63 E 10 17 29.98 1015 10 16 0.00 0.00
10:53 am 10:53 Sunny 69 20.6 53 11.7 57 57 ESE 12 19 29.98 1015 10 16 0.00 0.00
11:53 am 11:53 Sunny 73 22.8 53 11.7 50 50 ESE 13 20 29.98 1015 10 16 0.00 0.00
12:53 pm 12:53 Sunny 78 25.6 54 12.2 43 43 ESE 12 19 29.97 1015 10 16 0.00 0.00
1:53 pm 13:53 Sunny 81 27.2 54 12.2 39 39 SSE 13 20 29.93 1014 10 16 0.00 0.00
2:53 pm 14:53 Sunny 86 30 53 11.7 32 32 SSE 10 17 29.88 1012 10 16 0.00 0.00
3:53 pm 15:53 Sunny 88 31.1 51 10.6 28 28 S 17 28 29.85 1011 10 16 0.00 0.00
4:53 pm 16:53 Sunny 89 31.7 49 9.4 25 25 SSE 17 28 29.83 1010 10 16 0.00 0.00
5:53 pm 17:53 Sunny 89 31.7 46 7.8 23 23 SSE 20 31 29.82 1010 10 16 0.00 0.00
6:53 pm 18:53 Sunny 86 30 44 6.7 23 23 SSE 18 30 29.82 1010 10 16 0.00 0.00
7:53 pm 19:53 Sunny 82 27.8 45 7.2 27 27 SSE 21 33 29.83 1010 10 16 0.00 0.00
8:53 pm 20:53 Clear 79 26.1 46 7.8 31 31 SSE 17 28 29.84 1011 10 16 0.00 0.00
9:53 pm 21:53 Clear 75 23.9 49 9.4 40 40 SSE 21 33 29.86 1011 10 16 0.00 0.00
10:53 pm 22:53 Clear 70 21.1 54 12.2 57 57 SSE 18 30 29.88 1012 10 16 0.00 0.00
11:53 pm 23:53 Clear 68 20 57 13.9 68 68 SSE 17 28 29.87 1012 10 16 0.00 0.00

Powered by AerisWeather